Theta_e
307 310 311 311 310 312 313 316 319 324 329 332 332 335 333 336 336 338 336 333 334 335 335 333 333 333 331 328 325 324 323 323 323 323 324 327 327 327 328 330 330 328 329
305 309 312 310 310 311 313 317 320 324 329 333 333 334 335 335 335 336 336 333 333 334 334 332 333 332 331 328 326 325 323 325 325 322 323 320 323 326 328 328 329 330 330
303 310 311 312 312 313 316 318 322 326 330 334 333 334 334 333 332 332 332 332 332 333 333 332 332 332 332 327 327 325 325 323 324 327 324 319 317 321 324 326 327 328 327
306 311 312 312 314 316 317 318 324 325 327 333 332 330 329 327 330 330 332 332 332 331 333 332 330 331 331 327 327 327 326 327 323 325 326 325 323 320 318 322 324 324 323
305 309 312 314 315 317 317 321 323 323 324 328 333 332 329 330 331 331 330 330 331 332 332 331 329 329 328 327 325 325 326 327 326 325 324 323 323 322 321 318 320 319 321
302 306 313 316 317 318 320 322 321 322 324 326 326 327 327 325 327 328 327 328 329 330 330 330 328 327 326 327 325 326 326 325 327 327 325 324 322 320 319 318 318 320 321
300 302 306 307 312 316 318 320 320 322 325 325 325 326 325 325 324 325 326 325 325 326 327 327 326 327 326 326 326 325 325 325 325 327 326 326 325 323 322 318 316 318 318
298 299 301 305 308 314 317 317 318 319 322 325 325 327 327 325 325 325 325 325 325 325 326 326 326 325 325 325 325 326 326 325 325 327 328 327 325 324 323 319 316 312 315
297 297 299 300 303 306 313 318 318 319 322 322 326 326 327 326 325 326 326 325 326 326 326 326 325 325 324 324 325 325 325 326 327 327 327 325 325 324 324 321 320 318 315
295 296 297 298 301 304 309 314 320 320 320 323 325 325 327 327 326 326 325 325 326 325 325 325 325 324 324 324 324 325 325 326 327 326 325 324 324 324 324 323 320 319 320
294 295 296 298 299 302 304 308 312 319 320 321 321 321 323 324 324 323 323 323 324 325 325 324 321 320 321 322 323 324 324 324 325 323 322 323 323 321 321 320 320 319 319
295 295 296 296 297 298 300 304 307 312 319 320 320 320 320 320 320 320 321 322 321 321 322 323 323 321 321 323 322 323 322 322 321 320 320 321 319 320 322 320 319 319 318
295 295 295 295 296 297 299 301 304 308 316 319 319 318 317 318 318 318 319 320 320 320 320 320 320 320 319 319 321 321 321 321 321 320 320 319 319 318 318 317 315 313 309
294 294 294 294 294 296 297 299 301 304 310 313 314 314 316 316 316 316 317 318 319 318 318 319 319 318 318 318 318 318 320 319 321 319 319 319 318 318 314 313 313 310 307
292 293 293 293 294 294 295 297 298 301 304 305 307 309 311 312 312 312 312 312 313 314 316 317 317 318 318 317 317 318 319 319 318 317 318 318 315 311 314 314 312 308 305
291 292 293 293 293 293 294 295 296 297 299 300 301 303 306 307 307 307 307 307 307 307 310 310 311 310 310 307 308 310 316 316 316 316 314 312 306 308 309 310 310 310 305
291 291 291 292 292 292 293 294 295 296 297 297 298 299 301 302 303 303 304 303 304 305 305 305 306 306 307 306 308 308 308 307 306 305 304 303 303 304 305 306 306 305 304
292 292 292 292 292 292 293 294 294 295 295 295 296 297 298 299 300 300 300 301 301 301 302 302 302 302 303 304 306 306 306 305 304 304 303 303 301 301 300 298 296 295 295
293 292 292 293 292 292 292 293 293 293 294 294 295 295 296 297 297 297 297 298 295 294 298 299 300 300 301 301 303 303 302 302 303 302 303 302 300 301 300 296 292 292 291
293 293 292 292 292 291 292 292 292 292 292 293 294 295 296 296 296 296 296 296 296 295 296 297 297 298 298 299 302 302 300 301 299 299 299 300 300 301 300 296 293 290 289
293 293 292 292 291 291 291 291 291 291 292 293 295 295 296 296 295 295 295 295 295 296 295 296 296 297 297 298 300 302 299 298 297 296 296 297 300 301 300 298 295 293 290
291 292 291 291 291 291 291 290 290 290 292 293 293 294 294 295 295 295 294 293 294 294 294 294 295 296 296 296 297 299 301 300 297 296 296 296 298 299 299 297 296 297 294
290 290 290 290 290 291 290 290 289 290 291 292 292 292 293 293 294 294 294 294 294 294 294 294 294 295 295 296 297 298 299 301 299 296 296 297 297 299 299 298 297 296 288
287 287 289 289 289 289 290 290 289 289 290 290 291 291 292 293 293 293 293 293 293 293 293 292 292 294 295 295 296 296 296 297 299 297 296 297 297 297 297 297 295 291 287
286 287 287 288 289 289 289 289 289 289 289 289 289 290 290 290 291 291 293 292 293 294 293 293 293 292 292 294 297 297 296 296 296 296 291 291 291 291 291 292 292 288 287
286 286 287 288 289 289 289 289 289 289 289 289 289 289 289 289 289 289 290 292 294 294 294 294 294 294 295 295 295 296 296 297 297 294 289 289 289 290 290 290 289 288 288
Wind_Speed
21 19 18 16 15 13 13 15 14 15 11 10 13 11 11 11 9 11 16 15 15 15 14 10 12 12 11 11 10 7 11 6 6 4 2 2 2 4 4 3 4 7 7
20 22 16 14 14 15 16 15 15 15 14 11 12 11 13 10 10 11 15 18 16 17 15 14 13 13 10 10 12 11 6 6 8 4 4 3 3 3 3 3 5 7 6
23 15 7 11 11 13 14 13 14 15 15 17 12 10 10 9 10 12 11 13 16 16 16 15 13 13 11 10 12 10 11 7 7 6 4 3 5 3 3 5 5 8 7
20 1 3 7 11 10 8 14 13 11 7 18 14 20 13 12 10 13 11 12 17 16 14 14 13 13 10 11 11 10 9 8 8 4 5 2 2 4 4 3 5 6 6
20 18 4 7 8 7 8 10 12 5 6 8 13 10 9 9 9 12 16 14 13 15 15 14 14 13 10 10 10 9 10 6 6 8 4 3 2 2 2 3 5 3 5
26 24 4 6 3 4 9 10 9 7 8 6 4 12 12 6 8 13 11 10 10 11 14 13 12 12 11 10 10 11 11 9 6 7 5 6 5 4 3 2 2 5 3
20 19 19 19 12 1 6 4 5 7 8 10 8 8 9 13 10 10 11 10 8 8 11 12 11 10 11 11 10 11 11 12 10 10 8 6 5 4 3 2 2 2 2
18 21 18 13 16 11 8 7 3 5 4 10 12 10 11 8 8 11 8 7 8 8 10 10 6 6 8 10 11 8 9 9 10 11 9 6 6 4 3 4 3 2 4
20 20 21 19 19 18 12 5 5 4 2 7 11 13 12 11 10 12 10 10 10 9 12 12 11 12 10 9 10 7 10 10 10 11 10 8 7 7 6 5 7 8 6
20 19 17 17 14 13 12 13 8 8 5 7 7 6 9 11 10 9 7 9 10 10 11 11 10 7 8 8 8 8 7 9 8 8 11 10 7 7 7 5 5 5 7
16 15 15 16 16 15 14 14 13 9 11 12 11 8 6 7 8 8 9 10 9 9 11 11 7 4 3 4 7 9 9 12 9 7 9 10 6 6 4 5 4 6 7
13 13 14 15 16 16 18 17 16 13 9 11 14 11 12 12 12 8 7 10 8 7 7 7 8 10 10 6 6 8 7 11 10 8 8 5 5 5 7 6 9 8 8
13 13 14 15 16 16 16 16 16 16 13 9 10 12 12 10 7 6 5 9 8 7 6 5 7 7 6 5 5 7 8 9 10 9 8 9 8 9 6 7 6 6 3
10 12 12 13 13 14 14 15 14 13 14 14 12 11 9 10 9 9 7 4 5 4 4 4 5 5 5 6 5 5 5 5 6 7 9 7 10 12 9 9 9 7 6
10 11 11 11 12 12 13 13 12 12 11 12 12 10 9 10 9 9 8 8 8 5 3 2 3 4 5 4 6 7 7 8 8 7 8 11 12 12 11 8 9 9 7
8 9 9 10 12 11 11 10 11 11 9 11 11 9 9 9 9 7 6 6 7 6 6 5 4 3 1 2 4 2 5 7 10 11 10 7 7 9 13 15 13 15 12
4 7 8 8 8 9 9 10 10 9 11 11 11 11 9 9 8 6 7 6 7 5 6 6 5 5 4 5 1 4 3 2 2 1 3 2 2 6 3 5 7 7 6
3 3 4 5 6 6 8 7 8 9 9 9 9 9 9 8 7 8 8 7 6 6 6 6 5 3 2 6 6 2 2 3 5 6 6 6 5 3 4 5 5 5 7
1 2 2 1 3 5 5 4 7 7 10 11 10 8 6 6 6 7 7 6 5 6 7 5 7 8 7 11 9 4 3 2 3 4 3 7 8 12 12 7 5 4 2
3 3 1 1 3 4 4 5 7 6 8 6 5 5 6 7 7 6 6 3 3 3 3 5 5 6 6 9 9 5 3 4 3 2 3 6 4 12 17 12 11 6 5
5 3 3 3 2 1 2 4 4 7 5 4 4 5 6 6 5 4 3 4 4 4 5 5 4 4 4 6 8 7 3 3 2 2 3 3 8 11 14 12 8 10 12
4 4 4 3 3 2 1 3 4 3 3 4 5 6 6 4 3 5 4 4 4 4 4 4 5 4 5 6 6 8 7 6 4 5 4 4 9 11 13 11 10 12 12
5 3 4 4 4 4 4 2 1 3 3 3 4 4 4 4 4 4 4 3 4 4 5 5 5 5 4 4 8 10 10 10 6 5 6 9 12 14 13 15 14 15 6
6 4 4 5 5 4 3 3 1 2 2 3 4 4 4 4 4 2 2 2 3 4 5 6 6 7 6 5 4 4 4 8 7 7 5 7 9 11 10 10 10 7 7
5 5 6 5 6 4 5 3 3 2 2 2 3 3 3 4 4 4 3 2 1 2 3 4 4 5 6 7 10 10 7 6 6 8 3 3 4 6 6 7 8 5 7
5 5 6 5 6 5 5 4 4 3 2 1 1 2 2 3 3 4 5 5 5 7 7 7 6 6 10 15 17 16 16 16 16 7 5 6 7 8 8 8 8 8 11
Wind_Direction
306 288 265 231 212 217 218 217 209 208 199 203 199 179 179 176 174 177 169 177 172 182 188 179 176 182 185 183 177 164 179 175 179 141 177 207 229 229 227 215 201 190 186
310 294 254 215 205 199 209 214 217 212 205 202 197 193 186 176 174 173 179 173 180 181 185 178 180 182 181 179 180 181 176 181 176 170 152 195 201 215 211 208 206 193 185
322 308 201 201 189 194 192 204 208 212 219 204 192 191 185 174 181 184 177 179 181 185 187 181 174 178 183 184 179 184 181 174 187 203 162 165 217 163 190 214 207 199 202
325 323 187 202 187 195 192 208 202 204 224 193 183 190 188 180 180 178 173 180 181 179 186 183 176 185 182 187 185 182 188 179 189 198 215 250 139 190 189 215 222 219 223
1 359 167 174 171 172 191 200 199 145 206 200 185 173 169 194 180 186 180 176 182 181 182 177 179 186 179 182 176 181 192 201 189 201 163 185 181 207 171 195 191 222 224
357 355 352 82 151 201 192 166 146 163 175 164 162 157 156 137 220 172 178 172 177 181 180 179 181 177 177 187 176 192 192 202 204 203 197 195 180 184 176 177 178 216 199
344 5 27 17 355 100 100 127 103 101 158 168 165 135 133 159 151 181 163 155 159 171 176 177 182 183 187 184 184 190 196 204 204 202 210 205 198 149 146 172 120 252 224
358 6 20 352 359 11 65 98 86 78 104 180 170 148 157 163 140 164 158 162 180 169 162 177 180 174 191 200 192 195 200 199 214 206 207 204 189 180 173 164 152 273 240
3 6 2 2 4 359 5 78 74 41 355 197 168 169 151 155 165 165 172 173 177 174 172 170 167 190 193 196 197 186 203 193 205 208 210 204 200 189 197 200 174 219 254
2 3 0 0 357 358 4 28 48 45 1 89 115 125 173 154 162 158 163 171 168 161 163 159 179 161 183 190 174 206 200 204 206 207 206 205 209 194 205 197 217 200 229
358 358 357 2 5 11 13 24 22 32 49 65 78 83 94 121 130 141 145 134 142 150 166 172 172 184 140 159 208 213 200 210 206 207 212 212 196 201 186 200 197 225 222
353 359 2 3 13 12 10 14 11 17 47 58 60 67 75 70 71 56 116 115 116 122 134 142 175 191 211 199 215 231 218 199 185 188 202 191 210 208 201 211 216 223 228
358 358 8 13 12 12 14 14 19 14 23 45 54 65 66 72 68 99 57 86 102 110 109 128 151 160 161 169 193 212 217 213 190 171 192 214 194 220 211 212 221 217 194
357 359 11 13 12 12 9 17 24 23 34 44 42 43 63 67 59 50 47 88 100 120 131 158 155 167 163 180 196 210 226 231 236 218 210 206 209 219 205 207 212 197 187
1 6 4 7 14 12 14 14 16 22 34 48 44 36 49 60 57 51 40 45 57 57 86 163 196 200 197 188 183 210 220 230 229 229 225 220 210 216 212 209 211 196 185
352 354 3 8 13 10 5 4 16 18 24 47 46 43 53 53 46 48 60 60 63 46 41 36 33 70 357 142 102 223 263 248 242 234 218 226 229 236 236 228 215 199 186
348 356 2 2 2 3 2 11 8 9 31 32 33 29 35 50 49 57 58 47 48 53 47 39 28 18 353 340 156 178 178 141 246 303 276 283 355 241 199 196 157 134 107
346 4 0 360 4 356 6 1 13 26 32 35 31 26 28 37 33 36 40 38 30 32 31 32 18 7 6 349 324 290 157 180 195 186 183 178 182 186 138 106 61 71 83
229 302 321 7 1 3 357 29 34 28 27 20 19 18 26 43 41 44 35 33 35 26 18 10 8 7 356 0 352 348 332 312 305 313 237 179 162 163 147 121 113 111 39
210 183 162 93 30 359 8 35 29 38 42 26 12 11 25 42 44 35 37 33 58 42 46 30 17 3 354 354 349 332 319 304 294 270 288 280 261 181 168 159 154 179 179
201 174 154 147 159 315 52 50 28 33 352 2 19 29 31 40 43 53 47 40 39 34 28 25 6 10 348 337 344 327 276 271 283 255 245 229 238 210 193 181 180 180 149
222 198 189 185 173 157 106 74 54 341 345 18 36 30 24 28 31 42 36 34 28 20 13 354 349 339 337 345 326 310 288 263 246 240 226 225 216 211 200 194 198 178 159
222 220 219 229 213 191 163 141 352 359 4 60 50 40 36 36 26 30 27 27 22 16 1 349 340 336 336 321 308 304 300 284 251 242 236 225 211 207 215 204 196 180 162
213 219 221 238 257 229 202 203 199 43 17 30 30 23 31 32 35 48 54 45 30 9 355 344 337 332 327 319 322 313 304 289 268 247 244 232 217 209 198 197 201 177 175
210 202 210 224 241 234 230 209 184 145 73 49 12 6 13 13 1 3 355 1 3 0 340 321 312 313 311 316 309 307 303 290 268 271 222 207 217 214 199 193 190 177 176
205 215 223 219 230 215 220 208 197 183 159 116 20 356 352 352 350 345 336 304 290 322 308 309 319 316 306 314 317 313 303 290 286 270 229 232 221 220 213 208 198 186 191